Weather History for Novato, CA

Change the Weather History Date:

Tuesday, June 25, 2013

  Actual Average (KAPC) Record (KAPC)
Temperature  
Mean Temperature 64 °F 65 °F  
Max Temperature 69 °F 80 °F 96 °F (2003)
Min Temperature 59 °F 51 °F 44 °F (1928)
Degree Days  
Heating Degree Days 1    
Month to date heating degree days  
Since 1 June heating degree days  
Since 1 July heating degree days  
Cooling Degree Days 0    
Month to date cooling degree days  
Year to date cooling degree days  
Since 1 June cooling degree days  
Growing Degree Days 14 (Base 50)    
Moisture  
Dew Point 63 °F    
Average Humidity 97    
Maximum Humidity 100    
Minimum Humidity 88    
Precipitation  
Precipitation 0.04 in - 0.14 in (2013)
Month to date precipitation  
Year to date precipitation  
Since 1 July precipitation  
Sea Level Pressure  
Sea Level Pressure 29.95 in    
Wind  
Wind Speed 7 mph (South)    
Max Wind Speed 15 mph    
Max Gust Speed 20 mph    
Visibility 9 miles    
Events Rain    
T = Trace of Precipitation, MM = Missing Value Source: NWS Daily Summary

Daily Weather History Graph

Daily Weather History Graph

Search for Another Location

Airport:

Trip Planner

Search our weather history database for the weather conditions in past years. The results will help you decide how hot, cold, wet, or windy it might be!

Date:

Astronomy

Jun. 25, 2013 Rise Set
Actual Time 5:48 AM PDT 8:37 PM PDT
Civil Twilight 5:17 AM PDT 9:08 PM PDT
Nautical Twilight 4:37 AM PDT 9:48 PM PDT
Astronomical Twilight 3:52 AM PDT 10:33 PM PDT
Moon 10:29 PM PDT (6/25) 8:32 AM PDT (6/25)
Length of Visible Light 15h 51m
Length of Day
14h 48m
Waning Gibbous, 92% of the Moon is Illuminated
Jun 25
Waning Gibbous
Jun 29
Last Quarter
Jul 8
New
Jul 15
First Quarter
Jul 22
Full

Hourly Weather History & Observations

Time (PDT) Temp. Dew Point Humidity Pressure Visibility Wind Dir Wind Speed Gust Speed Precip Events Conditions
12:15 AM 59.0 °F 59.0 °F 100% 29.90 in 10.0 mi Calm Calm - N/A   Overcast
12:35 AM 59.0 °F 59.0 °F 100% 29.90 in 10.0 mi South 10.4 mph - N/A   Overcast
12:55 AM 59.0 °F 59.0 °F 100% 29.90 in 10.0 mi South 11.5 mph - N/A   Mostly Cloudy
1:15 AM 59.0 °F 59.0 °F 100% 29.90 in 5.0 mi South 11.5 mph - N/A Rain Light Rain
1:35 AM 59.0 °F 59.0 °F 100% 29.90 in 10.0 mi South 9.2 mph - N/A   Overcast
1:55 AM 59.0 °F 59.0 °F 100% 29.90 in 10.0 mi South 6.9 mph - N/A   Overcast
2:15 AM 59.0 °F 59.0 °F 100% 29.90 in 10.0 mi South 5.8 mph - N/A   Overcast
2:35 AM 60.8 °F 60.8 °F 100% 29.90 in 10.0 mi SSE 4.6 mph - N/A   Overcast
2:55 AM 60.8 °F 60.8 °F 100% 29.90 in 9.0 mi SSE 4.6 mph - N/A Rain Light Rain
3:15 AM 60.8 °F 60.8 °F 100% 29.90 in 9.0 mi SSE 4.6 mph - N/A   Overcast
3:35 AM 59.0 °F 59.0 °F 100% 29.90 in 5.0 mi SSE 4.6 mph - N/A   Overcast
3:55 AM 59.0 °F 59.0 °F 100% 29.89 in 10.0 mi SE 4.6 mph - N/A   Overcast
4:15 AM 59.0 °F 59.0 °F 100% 29.89 in 10.0 mi SE 4.6 mph - N/A   Overcast
4:35 AM 59.0 °F 59.0 °F 100% 29.89 in 10.0 mi SE 6.9 mph - N/A   Overcast
4:55 AM 60.8 °F 60.8 °F 100% 29.89 in 10.0 mi SSE 5.8 mph - N/A   Overcast
5:15 AM 60.8 °F 60.8 °F 100% 29.89 in 8.0 mi SSE 6.9 mph - N/A   Mostly Cloudy
5:35 AM 60.8 °F 60.8 °F 100% 29.89 in 3.0 mi SSE 3.5 mph - N/A Rain Light Rain
5:55 AM 60.8 °F 60.8 °F 100% 29.90 in 4.0 mi South 8.1 mph - N/A Rain Light Rain
6:15 AM 60.8 °F 60.8 °F 100% 29.90 in 10.0 mi South 6.9 mph - N/A   Overcast
6:35 AM 60.8 °F 60.8 °F 100% 29.91 in 8.0 mi South 6.9 mph - N/A   Overcast
6:55 AM 60.8 °F 60.8 °F 100% 29.91 in 2.5 mi SSE 5.8 mph - N/A Rain Light Rain
7:15 AM 62.6 °F 62.6 °F 100% 29.91 in 10.0 mi SSE 6.9 mph - N/A   Overcast
7:35 AM 62.6 °F 62.6 °F 100% 29.91 in 10.0 mi SSE 8.1 mph - N/A   Overcast
7:55 AM 62.6 °F 62.6 °F 100% 29.92 in 10.0 mi South 8.1 mph - N/A   Overcast
8:15 AM 62.6 °F 62.6 °F 100% 29.92 in 10.0 mi South 9.2 mph - N/A   Overcast
8:35 AM 64.4 °F 64.4 °F 100% 29.92 in 10.0 mi South 6.9 mph - N/A   Overcast
8:55 AM 64.4 °F 64.4 °F 100% 29.93 in 4.0 mi SSW 9.2 mph - N/A Rain Light Rain
9:15 AM 62.6 °F 62.6 °F 100% 29.94 in 1.0 mi SSW 10.4 mph - 0.02 in Rain Light Rain
9:35 AM 62.6 °F 62.6 °F 100% 29.94 in 1.0 mi SSW 9.2 mph - 0.04 in Rain Light Rain
9:55 AM 62.6 °F 62.6 °F 100% 29.94 in 5.0 mi SSW 11.5 mph - 0.04 in   Overcast
10:15 AM 64.4 °F 64.4 °F 100% 29.95 in 4.0 mi SSW 9.2 mph - N/A   Overcast
10:35 AM 64.4 °F 64.4 °F 100% 29.95 in 4.0 mi SSW 9.2 mph - N/A   Mostly Cloudy
10:55 AM 64.4 °F 64.4 °F 100% 29.96 in 2.5 mi SSW 11.5 mph - N/A Rain Light Rain
11:15 AM 64.4 °F 64.4 °F 100% 29.96 in 5.0 mi SSW 13.8 mph - N/A Rain Light Rain
11:35 AM 64.4 °F 64.4 °F 100% 29.97 in 3.0 mi South 15.0 mph 19.6 mph N/A Rain Light Rain
11:55 AM 64.4 °F 64.4 °F 100% 29.97 in 10.0 mi SSW 12.7 mph - N/A   Unknown
12:15 PM 66.2 °F 64.4 °F 94% 29.98 in 10.0 mi SSW 12.7 mph - N/A   Overcast
12:35 PM 66.2 °F 64.4 °F 94% 29.98 in 10.0 mi SSW 13.8 mph - N/A   Mostly Cloudy
12:55 PM 68.0 °F 64.4 °F 88% 29.98 in 10.0 mi SSW 11.5 mph - N/A   Mostly Cloudy
1:15 PM 66.2 °F 64.4 °F 94% 29.99 in 10.0 mi South 10.4 mph - N/A   Mostly Cloudy
1:35 PM 66.2 °F 64.4 °F 94% 29.99 in 10.0 mi SSW 6.9 mph - N/A   Overcast
1:55 PM 66.2 °F 64.4 °F 94% 29.99 in 10.0 mi South 8.1 mph - N/A   Overcast
2:15 PM 66.2 °F 64.4 °F 94% 29.99 in 10.0 mi South 6.9 mph - N/A   Overcast
2:35 PM 68.0 °F 64.4 °F 88% 29.99 in 10.0 mi South 8.1 mph - N/A   Overcast
2:55 PM 68.0 °F 66.2 °F 94% 29.98 in 10.0 mi South 8.1 mph - N/A   Overcast
3:15 PM 68.0 °F 64.4 °F 88% 29.98 in 10.0 mi South 8.1 mph - N/A   Overcast
3:35 PM 69.8 °F 66.2 °F 88% 29.98 in 10.0 mi South 4.6 mph - N/A   Overcast
3:55 PM 68.0 °F 66.2 °F 94% 29.98 in 10.0 mi ESE 9.2 mph - N/A   Overcast
4:15 PM 66.2 °F 66.2 °F 100% 29.98 in 10.0 mi SE 5.8 mph - N/A   Overcast
4:35 PM 68.0 °F 66.2 °F 94% 29.98 in 10.0 mi SE 5.8 mph - N/A   Overcast
4:55 PM 68.0 °F 66.2 °F 94% 29.98 in 10.0 mi SSW 4.6 mph - N/A   Overcast
5:15 PM 68.0 °F 66.2 °F 94% 29.98 in 10.0 mi SSE 4.6 mph - N/A   Overcast
5:35 PM 68.0 °F 64.4 °F 88% 29.98 in 10.0 mi SSE 3.5 mph - N/A   Overcast
5:55 PM 68.0 °F 64.4 °F 88% 29.98 in 10.0 mi SE 4.6 mph - N/A   Overcast
6:15 PM 68.0 °F 66.2 °F 94% 29.97 in 10.0 mi SE 5.8 mph - N/A   Overcast
6:35 PM 68.0 °F 64.4 °F 88% 29.97 in 10.0 mi SSW 6.9 mph - N/A   Overcast
6:55 PM 68.0 °F 64.4 °F 88% 29.97 in 10.0 mi SW 8.1 mph - N/A   Overcast
7:15 PM 68.0 °F 64.4 °F 88% 29.96 in 10.0 mi WSW 9.2 mph - N/A   Mostly Cloudy
7:35 PM 68.0 °F 64.4 °F 88% 29.96 in 10.0 mi WSW 10.4 mph - N/A   Overcast
7:55 PM 66.2 °F 64.4 °F 94% 29.97 in 10.0 mi WSW 6.9 mph - N/A   Overcast
8:15 PM 66.2 °F 64.4 °F 94% 29.97 in 10.0 mi SW 4.6 mph - N/A   Overcast
8:35 PM 66.2 °F 64.4 °F 94% 29.96 in 10.0 mi SW 5.8 mph - N/A   Overcast
8:55 PM 66.2 °F 64.4 °F 94% 29.97 in 10.0 mi SW 3.5 mph - N/A   Overcast
9:15 PM 66.2 °F 64.4 °F 94% 29.97 in 10.0 mi Calm Calm - N/A   Overcast
9:35 PM 66.2 °F 64.4 °F 94% 29.98 in 10.0 mi SSW 3.5 mph - N/A   Overcast
9:55 PM 66.2 °F 64.4 °F 94% 29.98 in 10.0 mi WSW 5.8 mph - N/A   Overcast
10:15 PM 66.2 °F 64.4 °F 94% 29.98 in 10.0 mi Calm Calm - N/A   Overcast
10:35 PM 64.4 °F 64.4 °F 100% 29.99 in 10.0 mi East 4.6 mph - N/A   Overcast
10:55 PM 64.4 °F 64.4 °F 100% 29.99 in 10.0 mi SE 3.5 mph - N/A   Overcast
11:15 PM 64.4 °F 64.4 °F 100% 29.99 in 10.0 mi Calm Calm - N/A   Overcast
11:35 PM 64.4 °F 64.4 °F 100% 29.99 in 10.0 mi SSE 3.5 mph - N/A   Overcast
11:55 PM 64.4 °F 64.4 °F 100% 29.99 in 10.0 mi Calm Calm - N/A   Overcast